Location: Unspecified
(44.4377°N, 88.0525°W)
Time: 14:48:48
(UTC-05:00)

Cosmos 1674 - Visible Passes

Search period start: 25 April 2015 00:00
Search period end: 05 May 2015 00:00
Orbit: 508 x 533 km, 82.5° (Epoch: 25 April)

Date Brightness Start Highest point End Pass type
(mag) Time Alt. Az. Time Alt. Az. Time Alt. Az.
28 Apr 4.5 05:04:47 10° SSE 05:08:15 35° E 05:11:48 10° NNE visible
29 Apr 4.8 04:51:20 10° SSE 04:54:40 30° E 04:58:05 10° NNE visible
30 Apr 5.0 04:37:54 10° SSE 04:41:04 26° E 04:44:20 10° NNE visible
01 May 5.2 04:24:30 10° SE 04:27:28 22° E 04:30:33 10° NE visible
02 May 5.4 04:11:09 10° SE 04:13:53 19° E 04:16:44 10° NE visible
03 May 5.5 03:57:50 10° SE 04:00:16 17° E 04:02:51 10° NE visible
04 May 5.6 03:44:35 10° ESE 03:46:39 15° E 03:48:54 10° NE visible
